Wetterdaten: Dienstag, 28.10.2014
Datum Zeit Temperatur Luftfeuchte Luftdruck Regen Wind Richtung Richtung Taupunkt Windchill Windben
28.10.2014 00:00 4,5 C 95 % 1023,8 hPa 0,0 l/m 1,4 km/h (1 Bft) N-NO 22 3,8 C 4,2 C 1,6 km/h (1 Bft)
28.10.2014 00:05 4,6 C 95 % 1023,8 hPa 0,0 l/m 0,8 km/h (0 Bft) N-NW 337 3,9 C 4,2 C 0,0 km/h (0 Bft)
28.10.2014 00:10 4,5 C 95 % 1023,8 hPa 0,0 l/m 0,6 km/h (0 Bft) O-NO 67 3,8 C 4,2 C 4,2 km/h (1 Bft)
28.10.2014 00:15 4,5 C 95 % 1023,8 hPa 0,0 l/m 1,3 km/h (1 Bft) N-NO 22 3,8 C 4,2 C 1,6 km/h (1 Bft)
28.10.2014 00:20 4,5 C 95 % 1023,8 hPa 0,0 l/m 1,4 km/h (1 Bft) N-NW 337 3,8 C 4,2 C 0,0 km/h (0 Bft)
28.10.2014 00:25 4,4 C 95 % 1023,8 hPa 0,0 l/m 1,1 km/h (1 Bft) W-NW 292 3,7 C 4,2 C 3,7 km/h (1 Bft)
28.10.2014 00:30 4,3 C 95 % 1023,8 hPa 0,0 l/m 0,8 km/h (0 Bft) N-NO 22 3,6 C 4,1 C 2,7 km/h (1 Bft)
28.10.2014 00:35 4,4 C 95 % 1023,8 hPa 0,0 l/m 1,4 km/h (1 Bft) N-NW 337 3,7 C 4,0 C 4,5 km/h (1 Bft)
28.10.2014 00:40 4,3 C 95 % 1023,8 hPa 0,0 l/m 1,4 km/h (1 Bft) NO 45 3,6 C 4,0 C 0,0 km/h (0 Bft)
28.10.2014 00:45 4,1 C 95 % 1023,8 hPa 0,0 l/m 1,8 km/h (1 Bft) W 270 3,4 C 4,0 C 4,8 km/h (1 Bft)
28.10.2014 00:50 4,0 C 95 % 1023,8 hPa 0,0 l/m 2,3 km/h (1 Bft) W-NW 292 3,3 C 3,8 C 5,8 km/h (2 Bft)
28.10.2014 00:55 4,1 C 95 % 1023,8 hPa 0,0 l/m 1,9 km/h (1 Bft) S-SO 157 3,4 C 3,7 C 1,8 km/h (1 Bft)
28.10.2014 01:00 4,0 C 95 % 1023,5 hPa 0,0 l/m 1,4 km/h (1 Bft) S-SW 202 3,3 C 3,7 C 4,8 km/h (1 Bft)
28.10.2014 01:05 3,9 C 95 % 1023,5 hPa 0,0 l/m 3,2 km/h (1 Bft) S 180 3,2 C 3,2 C 6,4 km/h (2 Bft)
28.10.2014 01:10 3,9 C 95 % 1023,5 hPa 0,0 l/m 3,9 km/h (1 Bft) S 180 3,2 C 2,9 C 6,4 km/h (2 Bft)
28.10.2014 01:15 3,6 C 95 % 1023,5 hPa 0,0 l/m 4,3 km/h (1 Bft) S 180 2,9 C 2,4 C 8,2 km/h (2 Bft)
28.10.2014 01:20 3,7 C 95 % 1023,4 hPa 0,0 l/m 3,7 km/h (1 Bft) SW 225 3,0 C 2,7 C 2,9 km/h (1 Bft)
28.10.2014 01:25 3,7 C 95 % 1023,4 hPa 0,0 l/m 1,8 km/h (1 Bft) SW 225 3,0 C 3,2 C 0,0 km/h (0 Bft)
28.10.2014 01:30 3,7 C 95 % 1023,4 hPa 0,0 l/m 1,0 km/h (0 Bft) S 180 3,0 C 3,3 C 0,0 km/h (0 Bft)
28.10.2014 01:35 3,6 C 95 % 1023,4 hPa 0,0 l/m 0,2 km/h (0 Bft) SW 225 2,9 C 3,3 C 0,0 km/h (0 Bft)
28.10.2014 01:38 3,7 C 95 % 1023,4 hPa 0,0 l/m 0,2 km/h (0 Bft) W 270 3,0 C 3,3 C 0,0 km/h (0 Bft)
28.10.2014 01:40 3,7 C 95 % 1023,4 hPa 0,0 l/m 0,2 km/h (0 Bft) W 270 3,0 C 3,3 C 0,0 km/h (0 Bft)
28.10.2014 01:45 3,7 C 95 % 1023,4 hPa 0,0 l/m 0,2 km/h (0 Bft) S 180 3,0 C 3,2 C 0,0 km/h (0 Bft)
28.10.2014 01:50 3,7 C 95 % 1023,4 hPa 0,0 l/m 0,3 km/h (0 Bft) W-SW 247 3,0 C 3,2 C 1,6 km/h (1 Bft)
28.10.2014 01:55 3,7 C 95 % 1023,4 hPa 0,0 l/m 0,8 km/h (0 Bft) W 270 3,0 C 3,2 C 0,0 km/h (0 Bft)
28.10.2014 02:00 3,7 C 95 % 1023,2 hPa 0,0 l/m 0,6 km/h (0 Bft) NW 315 3,0 C 3,2 C 0,0 km/h (0 Bft)
28.10.2014 02:05 3,6 C 95 % 1023,2 hPa 0,0 l/m 0,6 km/h (0 Bft) NW 315 2,9 C 3,2 C 0,0 km/h (0 Bft)
28.10.2014 02:10 3,5 C 94 % 1023,2 hPa 0,0 l/m 1,0 km/h (0 Bft) W-SW 247 2,6 C 3,2 C 1,8 km/h (1 Bft)
28.10.2014 02:15 3,5 C 94 % 1023,2 hPa 0,0 l/m 1,8 km/h (1 Bft) S-SW 202 2,6 C 3,1 C 4,7 km/h (1 Bft)
28.10.2014 02:20 3,5 C 94 % 1023,0 hPa 0,0 l/m 2,9 km/h (1 Bft) S 180 2,6 C 2,9 C 4,8 km/h (1 Bft)
28.10.2014 02:25 3,5 C 94 % 1023,0 hPa 0,0 l/m 2,7 km/h (1 Bft) SW 225 2,6 C 3,0 C 0,0 km/h (0 Bft)
28.10.2014 02:30 3,4 C 94 % 1023,0 hPa 0,0 l/m 2,1 km/h (1 Bft) S 180 2,5 C 2,9 C 4,2 km/h (1 Bft)
28.10.2014 02:35 3,4 C 94 % 1023,0 hPa 0,0 l/m 3,1 km/h (1 Bft) S 180 2,5 C 2,7 C 7,2 km/h (2 Bft)
28.10.2014 02:40 3,3 C 94 % 1022,9 hPa 0,0 l/m 4,8 km/h (1 Bft) S 180 2,4 C 1,6 C 5,6 km/h (1 Bft)
28.10.2014 02:45 3,4 C 94 % 1022,9 hPa 0,0 l/m 3,7 km/h (1 Bft) SO 135 2,5 C 2,2 C 0,0 km/h (0 Bft)
28.10.2014 02:50 3,4 C 94 % 1022,9 hPa 0,0 l/m 1,9 km/h (1 Bft) S-SW 202 2,5 C 2,8 C 3,4 km/h (1 Bft)
28.10.2014 02:55 3,3 C 94 % 1022,9 hPa 0,0 l/m 1,4 km/h (1 Bft) S-SW 202 2,4 C 2,8 C 2,6 km/h (1 Bft)
28.10.2014 03:00 3,4 C 94 % 1022,7 hPa 0,0 l/m 1,6 km/h (1 Bft) W 270 2,5 C 2,8 C 0,0 km/h (0 Bft)
28.10.2014 03:05 3,4 C 94 % 1022,7 hPa 0,0 l/m 1,0 km/h (0 Bft) O 90 2,5 C 2,8 C 1,8 km/h (1 Bft)
28.10.2014 03:10 3,5 C 94 % 1022,7 hPa 0,0 l/m 1,0 km/h (0 Bft) NW 315 2,6 C 2,9 C 1,9 km/h (1 Bft)
28.10.2014 03:15 3,5 C 94 % 1022,7 hPa 0,0 l/m 1,4 km/h (1 Bft) NW 315 2,6 C 2,9 C 0,0 km/h (0 Bft)
28.10.2014 03:20 3,5 C 94 % 1022,7 hPa 0,0 l/m 1,0 km/h (0 Bft) NW 315 2,6 C 2,9 C 0,0 km/h (0 Bft)
28.10.2014 03:25 3,5 C 94 % 1022,7 hPa 0,0 l/m 0,6 km/h (0 Bft) W-SW 247 2,6 C 2,9 C 0,0 km/h (0 Bft)
28.10.2014 03:30 3,5 C 94 % 1022,7 hPa 0,0 l/m 0,8 km/h (0 Bft) W-SW 247 2,6 C 2,9 C 2,1 km/h (1 Bft)
28.10.2014 03:35 3,4 C 94 % 1022,7 hPa 0,0 l/m 0,6 km/h (0 Bft) W-SW 247 2,5 C 3,0 C 3,2 km/h (1 Bft)
28.10.2014 03:40 3,4 C 94 % 1022,5 hPa 0,0 l/m 1,3 km/h (1 Bft) W-SW 247 2,5 C 2,9 C 0,0 km/h (0 Bft)
28.10.2014 03:45 3,3 C 94 % 1022,5 hPa 0,0 l/m 1,8 km/h (1 Bft) W 270 2,4 C 2,8 C 1,8 km/h (1 Bft)
28.10.2014 03:50 3,4 C 94 % 1022,5 hPa 0,0 l/m 1,0 km/h (0 Bft) W 270 2,5 C 2,8 C 0,0 km/h (0 Bft)
28.10.2014 03:55 3,4 C 94 % 1022,5 hPa 0,0 l/m 0,2 km/h (0 Bft) SW 225 2,5 C 2,8 C 0,0 km/h (0 Bft)
28.10.2014 04:00 3,3 C 94 % 1022,5 hPa 0,0 l/m 1,0 km/h (0 Bft) SW 225 2,4 C 2,8 C 1,9 km/h (1 Bft)
28.10.2014 04:05 3,4 C 94 % 1022,5 hPa 0,0 l/m 0,8 km/h (0 Bft) N 360 2,5 C 2,8 C 0,0 km/h (0 Bft)
28.10.2014 04:10 3,4 C 94 % 1022,5 hPa 0,0 l/m 0,6 km/h (0 Bft) S 180 2,5 C 2,8 C 3,7 km/h (1 Bft)
28.10.2014 04:15 3,4 C 94 % 1022,5 hPa 0,0 l/m 1,8 km/h (1 Bft) W-SW 247 2,5 C 2,8 C 3,4 km/h (1 Bft)
28.10.2014 04:20 3,4 C 94 % 1022,4 hPa 0,0 l/m 1,9 km/h (1 Bft) W-NW 292 2,5 C 2,8 C 0,0 km/h (0 Bft)
28.10.2014 04:25 3,4 C 94 % 1022,4 hPa 0,0 l/m 1,3 km/h (1 Bft) W 270 2,5 C 2,8 C 1,8 km/h (1 Bft)
28.10.2014 04:30 3,4 C 94 % 1022,4 hPa 0,0 l/m 1,1 km/h (1 Bft) W-SW 247 2,5 C 2,8 C 1,9 km/h (1 Bft)
28.10.2014 04:35 3,4 C 94 % 1022,4 hPa 0,0 l/m 1,3 km/h (1 Bft) S 180 2,5 C 2,8 C 1,8 km/h (1 Bft)
28.10.2014 04:38 3,4 C 94 % 1022,6 hPa 0,0 l/m 1,0 km/h (0 Bft) NW 315 2,5 C 2,7 C 0,0 km/h (0 Bft)
28.10.2014 04:40 3,4 C 94 % 1022,6 hPa 0,0 l/m 1,0 km/h (0 Bft) NW 315 2,5 C 2,7 C 0,0 km/h (0 Bft)
28.10.2014 04:45 3,4 C 94 % 1022,6 hPa 0,0 l/m 1,1 km/h (1 Bft) W-SW 247 2,5 C 2,7 C 2,3 km/h (1 Bft)
28.10.2014 04:50 3,3 C 94 % 1022,6 hPa 0,0 l/m 1,8 km/h (1 Bft) S-SW 202 2,4 C 2,7 C 2,1 km/h (1 Bft)
28.10.2014 04:55 3,2 C 94 % 1022,6 hPa 0,0 l/m 2,1 km/h (1 Bft) S 180 2,3 C 2,7 C 6,4 km/h (2 Bft)
28.10.2014 05:00 3,1 C 94 % 1022,8 hPa 0,0 l/m 2,6 km/h (1 Bft) SW 225 2,2 C 2,6 C 4,0 km/h (1 Bft)
28.10.2014 05:05 3,0 C 94 % 1022,8 hPa 0,0 l/m 4,5 km/h (1 Bft) S-SO 157 2,1 C 1,6 C 9,3 km/h (2 Bft)
28.10.2014 05:10 2,9 C 95 % 1022,8 hPa 0,0 l/m 5,3 km/h (1 Bft) S 180 2,2 C 1,1 C 4,8 km/h (1 Bft)
28.10.2014 05:15 3,0 C 94 % 1022,8 hPa 0,0 l/m 3,7 km/h (1 Bft) S-SW 202 2,1 C 1,9 C 0,0 km/h (0 Bft)
28.10.2014 05:20 3,0 C 94 % 1023,0 hPa 0,0 l/m 2,3 km/h (1 Bft) SW 225 2,1 C 2,5 C 1,9 km/h (1 Bft)
28.10.2014 05:25 3,1 C 94 % 1023,0 hPa 0,0 l/m 0,5 km/h (0 Bft) SO 135 2,2 C 2,5 C 0,0 km/h (0 Bft)
28.10.2014 05:30 3,2 C 94 % 1023,0 hPa 0,0 l/m 0,2 km/h (0 Bft) SO 135 2,3 C 2,6 C 0,0 km/h (0 Bft)
28.10.2014 05:35 3,2 C 94 % 1023,0 hPa 0,0 l/m 0,0 km/h (0 Bft) W-SW 247 2,3 C 2,6 C 0,0 km/h (0 Bft)
28.10.2014 05:40 3,1 C 94 % 1023,4 hPa 0,0 l/m 0,3 km/h (0 Bft) W-SW 247 2,2 C 2,6 C 0,0 km/h (0 Bft)
28.10.2014 05:45 3,1 C 94 % 1023,4 hPa 0,0 l/m 1,3 km/h (1 Bft) W 270 2,2 C 2,6 C 1,8 km/h (1 Bft)
28.10.2014 05:50 3,1 C 94 % 1023,4 hPa 0,0 l/m 1,6 km/h (1 Bft) SW 225 2,2 C 2,6 C 1,9 km/h (1 Bft)
28.10.2014 05:55 3,0 C 93 % 1023,4 hPa 0,0 l/m 1,6 km/h (1 Bft) S 180 2,0 C 2,5 C 3,9 km/h (1 Bft)
28.10.2014 06:00 2,9 C 94 % 1023,5 hPa 0,0 l/m 2,1 km/h (1 Bft) SW 225 2,0 C 2,5 C 3,7 km/h (1 Bft)
28.10.2014 06:05 2,9 C 94 % 1023,5 hPa 0,0 l/m 2,3 km/h (1 Bft) W-SW 247 2,0 C 2,4 C 1,9 km/h (1 Bft)
28.10.2014 06:10 2,9 C 94 % 1023,5 hPa 0,0 l/m 2,3 km/h (1 Bft) W-NW 292 2,0 C 2,4 C 2,7 km/h (1 Bft)
28.10.2014 06:15 2,9 C 94 % 1023,5 hPa 0,0 l/m 1,8 km/h (1 Bft) W-NW 292 2,0 C 2,4 C 3,2 km/h (1 Bft)
28.10.2014 06:20 2,9 C 94 % 1023,7 hPa 0,0 l/m 1,9 km/h (1 Bft) SW 225 2,0 C 2,3 C 2,1 km/h (1 Bft)
28.10.2014 06:25 2,9 C 94 % 1023,7 hPa 0,0 l/m 2,3 km/h (1 Bft) SW 225 2,0 C 2,3 C 3,9 km/h (1 Bft)
28.10.2014 06:30 2,8 C 94 % 1023,7 hPa 0,0 l/m 1,9 km/h (1 Bft) SW 225 1,9 C 2,3 C 2,4 km/h (1 Bft)
28.10.2014 06:35 2,7 C 94 % 1023,7 hPa 0,0 l/m 2,3 km/h (1 Bft) S-SO 157 1,8 C 2,3 C 5,3 km/h (1 Bft)
28.10.2014 06:40 2,7 C 94 % 1023,4 hPa 0,0 l/m 2,6 km/h (1 Bft) SW 225 1,8 C 2,2 C 4,7 km/h (1 Bft)
28.10.2014 06:45 2,7 C 94 % 1023,4 hPa 0,0 l/m 3,2 km/h (1 Bft) W 270 1,8 C 1,8 C 5,5 km/h (1 Bft)
28.10.2014 06:50 2,7 C 94 % 1023,4 hPa 0,0 l/m 2,9 km/h (1 Bft) W-SW 247 1,8 C 1,9 C 1,8 km/h (1 Bft)
28.10.2014 06:55 2,7 C 94 % 1023,4 hPa 0,0 l/m 2,9 km/h (1 Bft) S-SW 202 1,8 C 1,9 C 5,0 km/h (1 Bft)
28.10.2014 07:00 2,7 C 94 % 1023,4 hPa 0,0 l/m 2,9 km/h (1 Bft) S-SW 202 1,8 C 1,9 C 2,3 km/h (1 Bft)
28.10.2014 07:05 2,7 C 94 % 1023,4 hPa 0,0 l/m 2,1 km/h (1 Bft) S 180 1,8 C 2,1 C 5,5 km/h (1 Bft)
28.10.2014 07:10 2,7 C 94 % 1023,4 hPa 0,0 l/m 2,1 km/h (1 Bft) S 180 1,8 C 2,1 C 1,9 km/h (1 Bft)
28.10.2014 07:15 2,7 C 94 % 1023,4 hPa 0,0 l/m 2,4 km/h (1 Bft) W-SW 247 1,8 C 2,1 C 3,2 km/h (1 Bft)
28.10.2014 07:20 2,7 C 94 % 1023,3 hPa 0,0 l/m 1,8 km/h (1 Bft) W-SW 247 1,8 C 2,1 C 2,6 km/h (1 Bft)
28.10.2014 07:25 2,7 C 94 % 1023,3 hPa 0,0 l/m 2,6 km/h (1 Bft) SW 225 1,8 C 2,1 C 2,3 km/h (1 Bft)
28.10.2014 07:30 2,7 C 94 % 1023,3 hPa 0,0 l/m 3,4 km/h (1 Bft) S-SW 202 1,8 C 1,8 C 5,3 km/h (1 Bft)
28.10.2014 07:35 2,8 C 94 % 1023,3 hPa 0,0 l/m 3,5 km/h (1 Bft) SW 225 1,9 C 1,7 C 6,9 km/h (2 Bft)
28.10.2014 07:38 2,7 C 94 % 1023,2 hPa 0,0 l/m 4,0 km/h (1 Bft) S 180 1,8 C 1,4 C 8,9 km/h (2 Bft)
28.10.2014 07:40 2,7 C 94 % 1023,2 hPa 0,0 l/m 4,0 km/h (1 Bft) S 180 1,8 C 1,4 C 8,9 km/h (2 Bft)
28.10.2014 07:45 2,6 C 94 % 1023,2 hPa 0,0 l/m 5,0 km/h (1 Bft) S 180 1,7 C 0,8 C 9,8 km/h (2 Bft)
28.10.2014 07:50 2,5 C 93 % 1023,2 hPa 0,0 l/m 5,6 km/h (1 Bft) W-SW 247 1,5 C 0,6 C 4,8 km/h (1 Bft)
28.10.2014 07:55 2,6 C 93 % 1023,2 hPa 0,0 l/m 3,9 km/h (1 Bft) S 180 1,6 C 1,3 C 2,4 km/h (1 Bft)
28.10.2014 08:00 2,7 C 93 % 1023,1 hPa 0,0 l/m 2,7 km/h (1 Bft) W-SW 247 1,7 C 2,2 C 0,0 km/h (0 Bft)
28.10.2014 08:05 2,7 C 93 % 1023,1 hPa 0,0 l/m 2,3 km/h (1 Bft) W-SW 247 1,7 C 2,3 C 4,0 km/h (1 Bft)
28.10.2014 08:10 2,9 C 93 % 1023,1 hPa 0,0 l/m 1,9 km/h (1 Bft) S 180 1,9 C 2,4 C 3,1 km/h (1 Bft)
28.10.2014 08:15 2,8 C 93 % 1023,1 hPa 0,0 l/m 2,9 km/h (1 Bft) S-SW 202 1,8 C 2,2 C 5,1 km/h (1 Bft)
28.10.2014 08:20 2,7 C 93 % 1023,2 hPa 0,0 l/m 4,5 km/h (1 Bft) S-SW 202 1,7 C 1,3 C 4,0 km/h (1 Bft)
28.10.2014 08:25 2,7 C 93 % 1023,2 hPa 0,0 l/m 4,8 km/h (1 Bft) SW 225 1,7 C 1,2 C 2,4 km/h (1 Bft)
28.10.2014 08:30 3,0 C 92 % 1023,2 hPa 0,0 l/m 3,4 km/h (1 Bft) W-NW 292 1,8 C 2,1 C 0,0 km/h (0 Bft)
28.10.2014 08:35 3,4 C 92 % 1023,2 hPa 0,0 l/m 0,8 km/h (0 Bft) NO 45 2,2 C 2,8 C 0,0 km/h (0 Bft)
28.10.2014 08:40 3,5 C 92 % 1023,3 hPa 0,0 l/m 0,2 km/h (0 Bft) S 180 2,3 C 3,1 C 0,0 km/h (0 Bft)
28.10.2014 08:45 3,8 C 92 % 1023,3 hPa 0,0 l/m 0,0 km/h (0 Bft) O-NO 67 2,6 C 3,4 C 0,0 km/h (0 Bft)
28.10.2014 08:50 3,8 C 92 % 1023,3 hPa 0,0 l/m 0,2 km/h (0 Bft) SW 225 2,6 C 3,6 C 0,0 km/h (0 Bft)
28.10.2014 08:55 3,9 C 92 % 1023,3 hPa 0,0 l/m 0,6 km/h (0 Bft) S-SW 202 2,7 C 3,7 C 2,3 km/h (1 Bft)
28.10.2014 09:00 3,8 C 91 % 1023,2 hPa 0,0 l/m 1,0 km/h (0 Bft) S-SW 202 2,5 C 3,8 C 1,9 km/h (1 Bft)
28.10.2014 09:05 3,7 C 91 % 1023,2 hPa 0,0 l/m 1,3 km/h (1 Bft) S-SW 202 2,4 C 3,9 C 2,3 km/h (1 Bft)
28.10.2014 09:10 3,9 C 91 % 1023,2 hPa 0,0 l/m 1,4 km/h (1 Bft) S 180 2,6 C 3,9 C 0,0 km/h (0 Bft)
28.10.2014 09:15 4,1 C 91 % 1023,2 hPa 0,0 l/m 1,0 km/h (0 Bft) SO 135 2,8 C 4,0 C 0,0 km/h (0 Bft)
28.10.2014 09:20 4,2 C 90 % 1023,3 hPa 0,0 l/m 0,5 km/h (0 Bft) S 180 2,7 C 4,0 C 0,0 km/h (0 Bft)
28.10.2014 09:25 4,3 C 90 % 1023,3 hPa 0,0 l/m 1,0 km/h (0 Bft) S 180 2,8 C 4,2 C 0,0 km/h (0 Bft)
28.10.2014 09:30 4,3 C 90 % 1023,3 hPa 0,0 l/m 1,1 km/h (1 Bft) S 180 2,8 C 4,3 C 1,9 km/h (1 Bft)
28.10.2014 09:35 4,5 C 90 % 1023,3 hPa 0,0 l/m 1,1 km/h (1 Bft) SW 225 3,0 C 4,4 C 0,0 km/h (0 Bft)
28.10.2014 09:40 4,6 C 90 % 1023,4 hPa 0,0 l/m 1,4 km/h (1 Bft) W 270 3,1 C 4,6 C 2,4 km/h (1 Bft)
28.10.2014 09:45 4,6 C 89 % 1023,4 hPa 0,0 l/m 0,6 km/h (0 Bft) S 180 2,9 C 4,7 C 0,0 km/h (0 Bft)
28.10.2014 09:50 4,8 C 89 % 1023,4 hPa 0,0 l/m 0,6 km/h (0 Bft) S 180 3,1 C 5,0 C 2,9 km/h (1 Bft)
28.10.2014 09:55 4,8 C 89 % 1023,4 hPa 0,0 l/m 0,8 km/h (0 Bft) W 270 3,1 C 5,1 C 1,9 km/h (1 Bft)
28.10.2014 10:00 4,9 C 89 % 1023,1 hPa 0,0 l/m 1,4 km/h (1 Bft) SW 225 3,2 C 5,3 C 3,1 km/h (1 Bft)
28.10.2014 10:05 5,0 C 88 % 1023,1 hPa 0,0 l/m 1,9 km/h (1 Bft) S-SW 202 3,2 C 5,3 C 4,5 km/h (1 Bft)
28.10.2014 10:10 5,0 C 87 % 1023,1 hPa 0,0 l/m 2,1 km/h (1 Bft) S 180 3,0 C 5,3 C 0,0 km/h (0 Bft)
28.10.2014 10:15 5,1 C 87 % 1023,1 hPa 0,0 l/m 1,6 km/h (1 Bft) S-SO 157 3,1 C 5,4 C 2,6 km/h (1 Bft)
28.10.2014 10:20 5,0 C 86 % 1023,2 hPa 0,0 l/m 0,8 km/h (0 Bft) S 180 2,9 C 5,5 C 1,8 km/h (1 Bft)
28.10.2014 10:25 5,3 C 86 % 1023,2 hPa 0,0 l/m 1,3 km/h (1 Bft) SW 225 3,2 C 5,6 C 2,3 km/h (1 Bft)
28.10.2014 10:30 5,4 C 86 % 1023,2 hPa 0,0 l/m 1,6 km/h (1 Bft) S 180 3,3 C 5,6 C 2,7 km/h (1 Bft)
28.10.2014 10:35 5,4 C 86 % 1023,2 hPa 0,0 l/m 1,1 km/h (1 Bft) W 270 3,3 C 5,8 C 2,7 km/h (1 Bft)
28.10.2014 10:38 5,5 C 86 % 1023,1 hPa 0,0 l/m 0,8 km/h (0 Bft) S 180 3,3 C 5,9 C 3,7 km/h (1 Bft)
28.10.2014 10:40 5,5 C 86 % 1023,1 hPa 0,0 l/m 0,8 km/h (0 Bft) S 180 3,3 C 5,9 C 3,7 km/h (1 Bft)
28.10.2014 10:45 5,6 C 85 % 1023,1 hPa 0,0 l/m 1,4 km/h (1 Bft) W 270 3,3 C 5,9 C 3,9 km/h (1 Bft)
28.10.2014 10:50 5,7 C 85 % 1023,1 hPa 0,0 l/m 2,1 km/h (1 Bft) W-SW 247 3,4 C 6,0 C 0,0 km/h (0 Bft)
28.10.2014 10:55 5,7 C 84 % 1023,1 hPa 0,0 l/m 1,9 km/h (1 Bft) W 270 3,2 C 6,1 C 3,2 km/h (1 Bft)
28.10.2014 11:00 5,9 C 84 % 1023,1 hPa 0,0 l/m 1,3 km/h (1 Bft) S-SO 157 3,4 C 6,2 C 0,0 km/h (0 Bft)
28.10.2014 11:05 6,2 C 83 % 1023,1 hPa 0,0 l/m 1,0 km/h (0 Bft) W 270 3,5 C 6,5 C 0,0 km/h (0 Bft)
28.10.2014 11:10 6,3 C 83 % 1023,1 hPa 0,0 l/m 0,8 km/h (0 Bft) NW 315 3,6 C 6,7 C 0,0 km/h (0 Bft)
28.10.2014 11:15 6,3 C 82 % 1023,1 hPa 0,0 l/m 0,8 km/h (0 Bft) S 180 3,5 C 6,8 C 2,3 km/h (1 Bft)
28.10.2014 11:20 6,1 C 80 % 1023,2 hPa 0,0 l/m 1,3 km/h (1 Bft) SO 135 2,9 C 6,9 C 2,3 km/h (1 Bft)
28.10.2014 11:25 6,4 C 81 % 1023,2 hPa 0,0 l/m 1,3 km/h (1 Bft) S-SO 157 3,4 C 7,0 C 6,3 km/h (2 Bft)
28.10.2014 11:30 6,3 C 80 % 1023,2 hPa 0,0 l/m 2,1 km/h (1 Bft) W 270 3,1 C 7,0 C 3,7 km/h (1 Bft)
28.10.2014 11:35 6,3 C 80 % 1023,2 hPa 0,0 l/m 3,1 km/h (1 Bft) S-SO 157 3,1 C 6,9 C 2,9 km/h (1 Bft)
28.10.2014 11:40 6,3 C 80 % 1022,9 hPa 0,0 l/m 2,9 km/h (1 Bft) NW 315 3,1 C 6,8 C 3,5 km/h (1 Bft)
28.10.2014 11:45 6,6 C 80 % 1022,9 hPa 0,0 l/m 2,7 km/h (1 Bft) W-NW 292 3,4 C 6,7 C 3,2 km/h (1 Bft)
28.10.2014 11:50 6,4 C 79 % 1022,9 hPa 0,0 l/m 3,2 km/h (1 Bft) NW 315 3,0 C 6,7 C 6,0 km/h (2 Bft)
28.10.2014 11:55 6,5 C 79 % 1022,9 hPa 0,0 l/m 3,1 km/h (1 Bft) W 270 3,1 C 6,7 C 1,8 km/h (1 Bft)
28.10.2014 12:00 6,5 C 79 % 1022,8 hPa 0,0 l/m 3,1 km/h (1 Bft) SW 225 3,1 C 6,8 C 3,4 km/h (1 Bft)
28.10.2014 12:05 6,5 C 78 % 1022,8 hPa 0,0 l/m 3,1 km/h (1 Bft) W-NW 292 2,9 C 6,8 C 3,9 km/h (1 Bft)
28.10.2014 12:10 6,7 C 79 % 1022,8 hPa 0,0 l/m 2,4 km/h (1 Bft) N-NW 337 3,3 C 6,8 C 0,0 km/h (0 Bft)
28.10.2014 12:15 6,9 C 79 % 1022,8 hPa 0,0 l/m 0,6 km/h (0 Bft) W-NW 292 3,5 C 7,1 C 0,0 km/h (0 Bft)
28.10.2014 12:20 6,9 C 79 % 1022,6 hPa 0,0 l/m 0,3 km/h (0 Bft) N-NW 337 3,5 C 7,3 C 0,0 km/h (0 Bft)
28.10.2014 12:25 6,8 C 78 % 1022,6 hPa 0,0 l/m 1,8 km/h (1 Bft) NW 315 3,2 C 7,3 C 5,5 km/h (1 Bft)
28.10.2014 12:30 6,7 C 78 % 1022,6 hPa 0,0 l/m 2,9 km/h (1 Bft) N-NW 337 3,1 C 7,1 C 4,5 km/h (1 Bft)
28.10.2014 12:35 6,8 C 78 % 1022,6 hPa 0,0 l/m 3,1 km/h (1 Bft) W-NW 292 3,2 C 7,0 C 2,1 km/h (1 Bft)
28.10.2014 12:40 6,8 C 77 % 1022,3 hPa 0,0 l/m 2,7 km/h (1 Bft) NW 315 3,1 C 7,0 C 3,2 km/h (1 Bft)
28.10.2014 12:45 7,0 C 77 % 1022,3 hPa 0,0 l/m 2,4 km/h (1 Bft) NW 315 3,2 C 7,0 C 2,1 km/h (1 Bft)
28.10.2014 12:50 6,9 C 77 % 1022,3 hPa 0,0 l/m 2,6 km/h (1 Bft) NW 315 3,2 C 7,0 C 4,8 km/h (1 Bft)
28.10.2014 12:55 7,1 C 77 % 1022,3 hPa 0,0 l/m 3,2 km/h (1 Bft) W-SW 247 3,3 C 7,1 C 3,7 km/h (1 Bft)
28.10.2014 13:00 7,0 C 76 % 1022,1 hPa 0,0 l/m 2,7 km/h (1 Bft) W-SW 247 3,1 C 7,1 C 3,1 km/h (1 Bft)
28.10.2014 13:05 6,9 C 76 % 1022,1 hPa 0,0 l/m 2,1 km/h (1 Bft) N-NW 337 3,0 C 7,2 C 3,5 km/h (1 Bft)
28.10.2014 13:10 6,8 C 76 % 1022,1 hPa 0,0 l/m 2,6 km/h (1 Bft) SW 225 2,9 C 7,3 C 0,0 km/h (0 Bft)
28.10.2014 13:15 6,8 C 76 % 1022,1 hPa 0,0 l/m 1,4 km/h (1 Bft) S-SO 157 2,9 C 7,5 C 4,2 km/h (1 Bft)
28.10.2014 13:20 6,8 C 76 % 1021,9 hPa 0,0 l/m 0,6 km/h (0 Bft) S 180 2,9 C 7,5 C 0,0 km/h (0 Bft)
28.10.2014 13:25 7,0 C 76 % 1021,9 hPa 0,0 l/m 1,3 km/h (1 Bft) NW 315 3,1 C 7,6 C 2,9 km/h (1 Bft)
28.10.2014 13:30 7,1 C 76 % 1021,9 hPa 0,0 l/m 1,6 km/h (1 Bft) W-SW 247 3,2 C 7,6 C 4,0 km/h (1 Bft)
28.10.2014 13:35 7,0 C 75 % 1021,9 hPa 0,0 l/m 1,3 km/h (1 Bft) W-SW 247 2,9 C 7,8 C 3,1 km/h (1 Bft)
28.10.2014 13:40 6,8 C 73 % 1021,9 hPa 0,0 l/m 1,0 km/h (0 Bft) SO 135 2,3 C 7,9 C 1,9 km/h (1 Bft)
28.10.2014 13:45 7,0 C 75 % 1021,9 hPa 0,0 l/m 0,5 km/h (0 Bft) O-SO 112 2,9 C 7,9 C 0,0 km/h (0 Bft)
28.10.2014 13:50 7,3 C 75 % 1021,9 hPa 0,0 l/m 0,2 km/h (0 Bft) S 180 3,2 C 8,0 C 0,0 km/h (0 Bft)
28.10.2014 13:55 7,2 C 75 % 1021,9 hPa 0,0 l/m 0,3 km/h (0 Bft) W 270 3,1 C 8,2 C 0,0 km/h (0 Bft)
28.10.2014 14:00 7,2 C 75 % 1021,7 hPa 0,0 l/m 1,1 km/h (1 Bft) NW 315 3,1 C 8,2 C 3,5 km/h (1 Bft)
28.10.2014 14:05 7,3 C 75 % 1021,7 hPa 0,0 l/m 1,6 km/h (1 Bft) W-SW 247 3,2 C 7,9 C 3,1 km/h (1 Bft)
28.10.2014 14:10 7,3 C 75 % 1021,7 hPa 0,0 l/m 1,8 km/h (1 Bft) W-SW 247 3,2 C 7,9 C 5,3 km/h (1 Bft)
28.10.2014 14:15 7,7 C 75 % 1021,7 hPa 0,0 l/m 2,3 km/h (1 Bft) NW 315 3,6 C 7,9 C 3,5 km/h (1 Bft)
28.10.2014 14:20 7,7 C 74 % 1021,1 hPa 0,0 l/m 1,8 km/h (1 Bft) SW 225 3,4 C 8,2 C 2,4 km/h (1 Bft)
28.10.2014 14:25 9,1 C 72 % 1021,1 hPa 0,0 l/m 1,4 km/h (1 Bft) S-SO 157 4,3 C 9,7 C 0,0 km/h (0 Bft)
28.10.2014 14:30 9,5 C 68 % 1021,1 hPa 0,0 l/m 1,9 km/h (1 Bft) W-SW 247 3,9 C 11,2 C 4,3 km/h (1 Bft)
28.10.2014 14:35 9,9 C 65 % 1021,1 hPa 0,0 l/m 2,1 km/h (1 Bft) W 270 3,6 C 12,8 C 6,1 km/h (2 Bft)
28.10.2014 14:40 9,1 C 61 % 1020,9 hPa 0,0 l/m 3,1 km/h (1 Bft) S 180 2,0 C 12,9 C 4,5 km/h (1 Bft)
28.10.2014 14:45 9,4 C 64 % 1020,9 hPa 0,0 l/m 3,5 km/h (1 Bft) W-SW 247 2,9 C 11,5 C 4,5 km/h (1 Bft)
28.10.2014 14:50 8,9 C 62 % 1020,9 hPa 0,0 l/m 3,2 km/h (1 Bft) S 180 2,0 C 10,6 C 4,0 km/h (1 Bft)
28.10.2014 14:55 8,1 C 64 % 1020,9 hPa 0,0 l/m 3,1 km/h (1 Bft) S-SO 157 1,7 C 9,5 C 1,9 km/h (1 Bft)
28.10.2014 15:00 8,4 C 66 % 1021,1 hPa 0,0 l/m 2,6 km/h (1 Bft) SW 225 2,4 C 9,0 C 0,0 km/h (0 Bft)
28.10.2014 15:05 8,5 C 66 % 1021,1 hPa 0,0 l/m 1,4 km/h (1 Bft) S-SW 202 2,5 C 8,2 C 0,0 km/h (0 Bft)
28.10.2014 15:10 8,8 C 66 % 1021,1 hPa 0,0 l/m 1,3 km/h (1 Bft) O-SO 112 2,8 C 8,0 C 1,6 km/h (1 Bft)
28.10.2014 15:15 8,8 C 66 % 1021,1 hPa 0,0 l/m 0,6 km/h (0 Bft) N-NW 337 2,8 C 8,1 C 0,0 km/h (0 Bft)
28.10.2014 15:20 8,3 C 66 % 1020,8 hPa 0,0 l/m 0,2 km/h (0 Bft) O-NO 67 2,3 C 8,3 C 0,0 km/h (0 Bft)
28.10.2014 15:25 8,0 C 67 % 1020,8 hPa 0,0 l/m 0,0 km/h (0 Bft) SO 135 2,3 C 8,5 C 0,0 km/h (0 Bft)
28.10.2014 15:30 7,6 C 68 % 1020,8 hPa 0,0 l/m 0,0 km/h (0 Bft) O-NO 67 2,1 C 8,6 C 0,0 km/h (0 Bft)
28.10.2014 15:35 6,9 C 70 % 1020,8 hPa 0,0 l/m 0,3 km/h (0 Bft) SO 135 1,8 C 9,0 C 0,0 km/h (0 Bft)
28.10.2014 15:40 6,6 C 70 % 1020,6 hPa 0,0 l/m 0,3 km/h (0 Bft) SO 135 1,5 C 8,9 C 0,0 km/h (0 Bft)
28.10.2014 15:45 6,3 C 73 % 1020,6 hPa 0,0 l/m 0,3 km/h (0 Bft) O-NO 67 1,8 C 7,8 C 3,5 km/h (1 Bft)
28.10.2014 15:50 5,9 C 76 % 1020,6 hPa 0,0 l/m 1,6 km/h (1 Bft) O-NO 67 2,0 C 7,1 C 6,9 km/h (2 Bft)
28.10.2014 15:55 5,7 C 77 % 1020,6 hPa 0,0 l/m 2,7 km/h (1 Bft) O-NO 67 2,0 C 6,4 C 0,0 km/h (0 Bft)
28.10.2014 16:00 5,7 C 79 % 1020,4 hPa 0,0 l/m 2,6 km/h (1 Bft) S-SO 157 2,3 C 6,0 C 5,0 km/h (1 Bft)
28.10.2014 16:05 5,5 C 79 % 1020,4 hPa 0,0 l/m 2,1 km/h (1 Bft) O-SO 112 2,2 C 5,6 C 3,9 km/h (1 Bft)
28.10.2014 16:10 5,3 C 80 % 1020,4 hPa 0,0 l/m 2,9 km/h (1 Bft) O-NO 67 2,1 C 5,5 C 4,2 km/h (1 Bft)
28.10.2014 16:15 5,0 C 81 % 1020,4 hPa 0,0 l/m 1,8 km/h (1 Bft) O-NO 67 2,0 C 5,2 C 2,4 km/h (1 Bft)
28.10.2014 16:20 4,8 C 82 % 1020,5 hPa 0,0 l/m 1,3 km/h (1 Bft) SO 135 2,0 C 5,1 C 3,9 km/h (1 Bft)
28.10.2014 16:25 4,5 C 83 % 1020,5 hPa 0,0 l/m 1,3 km/h (1 Bft) O-SO 112 1,9 C 5,2 C 0,0 km/h (0 Bft)
28.10.2014 16:30 4,2 C 82 % 1020,5 hPa 0,0 l/m 1,1 km/h (1 Bft) SO 135 1,4 C 5,0 C 0,0 km/h (0 Bft)
28.10.2014 16:33 3,9 C 83 % 1020,5 hPa 0,0 l/m 0,6 km/h (0 Bft) O-NO 67 1,3 C 4,4 C 2,6 km/h (1 Bft)
28.10.2014 16:35 3,9 C 83 % 1020,5 hPa 0,0 l/m 0,6 km/h (0 Bft) O-NO 67 1,3 C 4,4 C 2,6 km/h (1 Bft)
28.10.2014 16:40 3,7 C 83 % 1020,3 hPa 0,0 l/m 1,3 km/h (1 Bft) O-NO 67 1,1 C 4,2 C 2,9 km/h (1 Bft)
28.10.2014 16:45 3,5 C 84 % 1020,3 hPa 0,0 l/m 0,8 km/h (0 Bft) NO 45 1,1 C 3,8 C 0,0 km/h (0 Bft)
28.10.2014 16:50 3,3 C 84 % 1020,3 hPa 0,0 l/m 1,0 km/h (0 Bft) O-NO 67 0,9 C 3,6 C 3,1 km/h (1 Bft)
28.10.2014 16:55 3,0 C 84 % 1020,3 hPa 0,0 l/m 0,8 km/h (0 Bft) NO 45 0,6 C 3,3 C 0,0 km/h (0 Bft)
28.10.2014 17:00 2,8 C 86 % 1020,4 hPa 0,0 l/m 0,5 km/h (0 Bft) O-NO 67 0,7 C 3,0 C 0,0 km/h (0 Bft)
28.10.2014 17:05 2,9 C 86 % 1020,4 hPa 0,0 l/m 0,2 km/h (0 Bft) SO 135 0,8 C 2,6 C 0,0 km/h (0 Bft)
28.10.2014 17:10 2,8 C 86 % 1020,4 hPa 0,0 l/m 0,2 km/h (0 Bft) SO 135 0,7 C 2,4 C 0,0 km/h (0 Bft)
28.10.2014 17:15 2,4 C 86 % 1020,4 hPa 0,0 l/m 0,0 km/h (0 Bft) SO 135 0,3 C 2,1 C 0,0 km/h (0 Bft)
28.10.2014 17:20 2,4 C 87 % 1020,4 hPa 0,0 l/m 0,0 km/h (0 Bft) O-NO 67 0,5 C 1,8 C 0,0 km/h (0 Bft)
28.10.2014 17:25 2,2 C 87 % 1020,4 hPa 0,0 l/m 0,0 km/h (0 Bft) O-SO 112 0,3 C 1,7 C 0,0 km/h (0 Bft)
28.10.2014 17:30 2,0 C 87 % 1020,4 hPa 0,0 l/m 0,0 km/h (0 Bft) O-SO 112 0,1 C 1,4 C 0,0 km/h (0 Bft)
28.10.2014 17:35 1,9 C 88 % 1020,4 hPa 0,0 l/m 0,2 km/h (0 Bft) S-SO 157 0,1 C 1,1 C 0,0 km/h (0 Bft)
28.10.2014 17:40 2,0 C 88 % 1020,2 hPa 0,0 l/m 0,2 km/h (0 Bft) S-SO 157 0,2 C 1,0 C 0,0 km/h (0 Bft)
28.10.2014 17:45 2,1 C 88 % 1020,2 hPa 0,0 l/m 0,0 km/h (0 Bft) S-SO 157 0,3 C 1,0 C 0,0 km/h (0 Bft)
28.10.2014 17:50 2,1 C 88 % 1020,2 hPa 0,0 l/m 0,0 km/h (0 Bft) SO 135 0,3 C 1,0 C 0,0 km/h (0 Bft)
28.10.2014 17:55 2,0 C 89 % 1020,2 hPa 0,0 l/m 1,0 km/h (0 Bft) S-SO 157 0,4 C 1,0 C 0,0 km/h (0 Bft)
28.10.2014 18:00 2,1 C 89 % 1020,3 hPa 0,0 l/m 1,1 km/h (1 Bft) SO 135 0,5 C 1,0 C 0,0 km/h (0 Bft)
28.10.2014 18:05 1,9 C 91 % 1020,3 hPa 0,0 l/m 0,8 km/h (0 Bft) SO 135 0,6 C 1,0 C 0,0 km/h (0 Bft)
28.10.2014 18:10 1,8 C 91 % 1020,3 hPa 0,0 l/m 0,5 km/h (0 Bft) SO 135 0,5 C 0,9 C 0,0 km/h (0 Bft)
28.10.2014 18:15 1,9 C 92 % 1020,3 hPa 0,0 l/m 0,6 km/h (0 Bft) SO 135 0,7 C 0,8 C 0,0 km/h (0 Bft)
28.10.2014 18:20 1,8 C 92 % 1020,2 hPa 0,0 l/m 0,8 km/h (0 Bft) S-SO 157 0,6 C 0,7 C 0,0 km/h (0 Bft)
28.10.2014 18:25 1,6 C 92 % 1020,2 hPa 0,0 l/m 0,2 km/h (0 Bft) SO 135 0,4 C 0,6 C 0,0 km/h (0 Bft)
28.10.2014 18:30 1,4 C 92 % 1020,2 hPa 0,0 l/m 0,0 km/h (0 Bft) S 180 0,2 C 0,3 C 0,0 km/h (0 Bft)
28.10.2014 18:35 1,6 C 92 % 1020,2 hPa 0,0 l/m 0,5 km/h (0 Bft) S-SO 157 0,4 C 0,3 C 1,8 km/h (1 Bft)
28.10.2014 18:40 1,3 C 92 % 1020,0 hPa 0,0 l/m 0,6 km/h (0 Bft) SO 135 0,1 C 0,3 C 0,0 km/h (0 Bft)
28.10.2014 18:45 0,8 C 92 % 1020,0 hPa 0,0 l/m 0,3 km/h (0 Bft) SO 135 -0,3 C 0,1 C 0,0 km/h (0 Bft)
28.10.2014 18:50 0,7 C 92 % 1020,0 hPa 0,0 l/m 0,0 km/h (0 Bft) S 180 -0,4 C -0,2 C 0,0 km/h (0 Bft)
28.10.2014 18:55 0,4 C 92 % 1020,0 hPa 0,0 l/m 0,0 km/h (0 Bft) SO 135 -0,7 C -0,3 C 0,0 km/h (0 Bft)
28.10.2014 19:00 0,4 C 92 % 1019,9 hPa 0,0 l/m 0,0 km/h (0 Bft) SO 135 -0,7 C -0,4 C 0,0 km/h (0 Bft)
28.10.2014 19:05 0,3 C 92 % 1019,9 hPa 0,0 l/m 0,0 km/h (0 Bft) S-SO 157 -0,8 C -0,7 C 0,0 km/h (0 Bft)
28.10.2014 19:10 0,8 C 92 % 1019,9 hPa 0,0 l/m 0,0 km/h (0 Bft) S-SO 157 -0,3 C -0,6 C 0,0 km/h (0 Bft)
28.10.2014 19:15 0,6 C 92 % 1019,9 hPa 0,0 l/m 0,0 km/h (0 Bft) SO 135 -0,5 C -0,6 C 0,0 km/h (0 Bft)
28.10.2014 19:20 0,3 C 92 % 1020,1 hPa 0,0 l/m 0,0 km/h (0 Bft) SO 135 -0,8 C -0,7 C 0,0 km/h (0 Bft)
28.10.2014 19:25 0,4 C 92 % 1020,1 hPa 0,0 l/m 0,3 km/h (0 Bft) S-SO 157 -0,7 C -0,8 C 1,6 km/h (1 Bft)
28.10.2014 19:30 0,9 C 92 % 1020,1 hPa 0,0 l/m 0,3 km/h (0 Bft) SO 135 -0,2 C -0,5 C 0,0 km/h (0 Bft)
28.10.2014 19:33 0,1 C 92 % 1020,1 hPa 0,0 l/m 0,2 km/h (0 Bft) SO 135 -1,0 C -0,6 C 0,0 km/h (0 Bft)
28.10.2014 19:35 0,1 C 92 % 1020,1 hPa 0,0 l/m 0,2 km/h (0 Bft) SO 135 -1,0 C -0,6 C 0,0 km/h (0 Bft)
28.10.2014 19:40 -0,2 C 92 % 1019,9 hPa 0,0 l/m 0,0 km/h (0 Bft) S 180 -1,3 C -0,9 C 0,0 km/h (0 Bft)
28.10.2014 19:45 -0,3 C 92 % 1019,9 hPa 0,0 l/m 0,0 km/h (0 Bft) S 180 -1,4 C -1,1 C 0,0 km/h (0 Bft)
28.10.2014 19:50 -0,3 C 92 % 1019,9 hPa 0,0 l/m 0,2 km/h (0 Bft) SW 225 -1,4 C -1,2 C 0,0 km/h (0 Bft)
28.10.2014 19:55 -0,2 C 92 % 1019,9 hPa 0,0 l/m 0,2 km/h (0 Bft) S-SW 202 -1,3 C -1,1 C 0,0 km/h (0 Bft)
28.10.2014 20:00 -0,5 C 92 % 1019,9 hPa 0,0 l/m 0,0 km/h (0 Bft) S 180 -1,6 C -1,2 C 0,0 km/h (0 Bft)
28.10.2014 20:05 -0,8 C 92 % 1019,9 hPa 0,0 l/m 0,0 km/h (0 Bft) S 180 -1,9 C -1,6 C 0,0 km/h (0 Bft)
28.10.2014 20:10 -0,9 C 92 % 1019,9 hPa 0,0 l/m 0,0 km/h (0 Bft) S-SO 157 -2,0 C -1,8 C 0,0 km/h (0 Bft)
28.10.2014 20:15 -0,8 C 92 % 1019,9 hPa 0,0 l/m 0,0 km/h (0 Bft) SW 225 -1,9 C -1,8 C 0,0 km/h (0 Bft)
28.10.2014 20:20 -0,6 C 92 % 1019,7 hPa 0,0 l/m 0,0 km/h (0 Bft) S 180 -1,7 C -1,8 C 0,0 km/h (0 Bft)
28.10.2014 20:25 -0,7 C 92 % 1019,7 hPa 0,0 l/m 0,0 km/h (0 Bft) S-SO 157 -1,8 C -1,8 C 0,0 km/h (0 Bft)
28.10.2014 20:30 -0,8 C 92 % 1019,7 hPa 0,0 l/m 0,0 km/h (0 Bft) S-SO 157 -1,9 C -1,8 C 0,0 km/h (0 Bft)
28.10.2014 20:35 -1,0 C 92 % 1019,7 hPa 0,0 l/m 0,0 km/h (0 Bft) S-SO 157 -2,1 C -1,8 C 0,0 km/h (0 Bft)
28.10.2014 20:40 -0,8 C 92 % 1019,8 hPa 0,0 l/m 0,0 km/h (0 Bft) SO 135 -1,9 C -1,7 C 0,0 km/h (0 Bft)
28.10.2014 20:45 -0,5 C 92 % 1019,8 hPa 0,0 l/m 0,0 km/h (0 Bft) SO 135 -1,6 C -1,4 C 0,0 km/h (0 Bft)
28.10.2014 20:50 -0,2 C 92 % 1019,8 hPa 0,0 l/m 0,0 km/h (0 Bft) SO 135 -1,3 C -1,3 C 0,0 km/h (0 Bft)
28.10.2014 20:55 -0,4 C 93 % 1019,8 hPa 0,0 l/m 0,0 km/h (0 Bft) SO 135 -1,4 C -1,2 C 0,0 km/h (0 Bft)
28.10.2014 21:00 -0,1 C 93 % 1020,0 hPa 0,0 l/m 0,0 km/h (0 Bft) SO 135 -1,1 C -1,2 C 0,0 km/h (0 Bft)
28.10.2014 21:05 -0,6 C 93 % 1020,0 hPa 0,0 l/m 0,0 km/h (0 Bft) W-SW 247 -1,6 C -1,3 C 0,0 km/h (0 Bft)
28.10.2014 21:10 -0,5 C 93 % 1020,0 hPa 0,0 l/m 0,0 km/h (0 Bft) W-SW 247 -1,5 C -1,4 C 0,0 km/h (0 Bft)
28.10.2014 21:15 -0,8 C 93 % 1020,0 hPa 0,0 l/m 0,0 km/h (0 Bft) W 270 -1,8 C -1,6 C 0,0 km/h (0 Bft)
28.10.2014 21:20 -0,6 C 93 % 1019,9 hPa 0,0 l/m 0,0 km/h (0 Bft) O-SO 112 -1,6 C -1,7 C 0,0 km/h (0 Bft)
28.10.2014 21:25 -0,5 C 93 % 1019,9 hPa 0,0 l/m 0,5 km/h (0 Bft) W-NW 292 -1,5 C -1,7 C 3,4 km/h (1 Bft)
28.10.2014 21:30 -0,4 C 93 % 1019,9 hPa 0,0 l/m 0,8 km/h (0 Bft) W 270 -1,4 C -1,5 C 0,0 km/h (0 Bft)
28.10.2014 21:35 -0,6 C 93 % 1019,9 hPa 0,0 l/m 0,5 km/h (0 Bft) S-SO 157 -1,6 C -1,6 C 0,0 km/h (0 Bft)
28.10.2014 21:40 -0,6 C 93 % 1020,0 hPa 0,0 l/m 0,0 km/h (0 Bft) S-SO 157 -1,6 C -1,7 C 0,0 km/h (0 Bft)
28.10.2014 21:45 -0,8 C 93 % 1020,0 hPa 0,0 l/m 0,2 km/h (0 Bft) S-SO 157 -1,8 C -1,7 C 0,0 km/h (0 Bft)
28.10.2014 21:50 -0,6 C 93 % 1020,0 hPa 0,0 l/m 0,2 km/h (0 Bft) S 180 -1,6 C -1,7 C 0,0 km/h (0 Bft)
28.10.2014 21:55 -0,8 C 93 % 1020,0 hPa 0,0 l/m 0,0 km/h (0 Bft) S-SO 157 -1,8 C -1,8 C 0,0 km/h (0 Bft)
28.10.2014 22:00 -0,9 C 93 % 1019,9 hPa 0,0 l/m 0,0 km/h (0 Bft) S-SO 157 -1,9 C -1,8 C 0,0 km/h (0 Bft)
28.10.2014 22:05 -0,5 C 94 % 1019,9 hPa 0,0 l/m 0,0 km/h (0 Bft) S-SO 157 -1,3 C -1,7 C 0,0 km/h (0 Bft)
28.10.2014 22:10 -0,8 C 93 % 1019,9 hPa 0,0 l/m 0,0 km/h (0 Bft) S-SO 157 -1,8 C -1,7 C 0,0 km/h (0 Bft)
28.10.2014 22:15 -0,6 C 93 % 1019,9 hPa 0,0 l/m 0,0 km/h (0 Bft) S-SO 157 -1,6 C -1,6 C 0,0 km/h (0 Bft)
28.10.2014 22:20 -0,8 C 93 % 1020,0 hPa 0,0 l/m 0,2 km/h (0 Bft) O-SO 112 -1,8 C -1,5 C 0,0 km/h (0 Bft)
28.10.2014 22:25 -0,3 C 94 % 1020,0 hPa 0,0 l/m 0,2 km/h (0 Bft) SO 135 -1,1 C -1,5 C 0,0 km/h (0 Bft)
28.10.2014 22:30 0,0 C 94 % 1020,0 hPa 0,0 l/m 0,0 km/h (0 Bft) SO 135 -0,8 C -1,3 C 0,0 km/h (0 Bft)
28.10.2014 22:33 -0,5 C 94 % 1020,0 hPa 0,0 l/m 0,0 km/h (0 Bft) O-NO 67 -1,3 C -1,4 C 0,0 km/h (0 Bft)
28.10.2014 22:35 -0,5 C 94 % 1020,0 hPa 0,0 l/m 0,0 km/h (0 Bft) O-NO 67 -1,3 C -1,4 C 0,0 km/h (0 Bft)
28.10.2014 22:40 -0,6 C 94 % 1020,0 hPa 0,0 l/m 0,0 km/h (0 Bft) SO 135 -1,4 C -1,4 C 0,0 km/h (0 Bft)
28.10.2014 22:45 -0,9 C 93 % 1020,0 hPa 0,0 l/m 0,0 km/h (0 Bft) SO 135 -1,9 C -1,6 C 1,6 km/h (1 Bft)
28.10.2014 22:50 -0,7 C 94 % 1020,0 hPa 0,0 l/m 0,0 km/h (0 Bft) SO 135 -1,5 C -1,6 C 0,0 km/h (0 Bft)
28.10.2014 22:55 -0,6 C 94 % 1020,0 hPa 0,0 l/m 0,0 km/h (0 Bft) SO 135 -1,4 C -1,6 C 0,0 km/h (0 Bft)
28.10.2014 23:00 -0,6 C 94 % 1019,9 hPa 0,0 l/m 0,0 km/h (0 Bft) SO 135 -1,4 C -1,7 C 0,0 km/h (0 Bft)
28.10.2014 23:05 -0,7 C 94 % 1019,9 hPa 0,0 l/m 0,0 km/h (0 Bft) O-SO 112 -1,5 C -1,7 C 0,0 km/h (0 Bft)
28.10.2014 23:10 -0,8 C 94 % 1019,9 hPa 0,0 l/m 0,0 km/h (0 Bft) O-SO 112 -1,6 C -1,7 C 0,0 km/h (0 Bft)
28.10.2014 23:15 -0,6 C 94 % 1019,9 hPa 0,0 l/m 0,0 km/h (0 Bft) S-SO 157 -1,4 C -1,7 C 0,0 km/h (0 Bft)
28.10.2014 23:20 -0,7 C 94 % 1019,8 hPa 0,0 l/m 0,0 km/h (0 Bft) SO 135 -1,5 C -1,6 C 0,0 km/h (0 Bft)
28.10.2014 23:25 -0,6 C 94 % 1019,8 hPa 0,0 l/m 0,0 km/h (0 Bft) SO 135 -1,4 C -1,6 C 0,0 km/h (0 Bft)
28.10.2014 23:30 -0,6 C 94 % 1019,8 hPa 0,0 l/m 0,0 km/h (0 Bft) SO 135 -1,4 C -1,6 C 0,0 km/h (0 Bft)
28.10.2014 23:35 -0,6 C 94 % 1019,8 hPa 0,0 l/m 0,0 km/h (0 Bft) O-NO 67 -1,4 C -1,6 C 0,0 km/h (0 Bft)
28.10.2014 23:40 -0,6 C 94 % 1019,8 hPa 0,0 l/m 0,0 km/h (0 Bft) S-SO 157 -1,4 C -1,6 C 0,0 km/h (0 Bft)
28.10.2014 23:45 -0,3 C 94 % 1019,8 hPa 0,0 l/m 0,0 km/h (0 Bft) S-SO 157 -1,1 C -1,6 C 0,0 km/h (0 Bft)
28.10.2014 23:50 -0,3 C 94 % 1019,8 hPa 0,0 l/m 0,0 km/h (0 Bft) S-SO 157 -1,1 C -1,5 C 0,0 km/h (0 Bft)
28.10.2014 23:55 -0,5 C 94 % 1019,8 hPa 0,0 l/m 0,0 km/h (0 Bft) S-SO 157 -1,3 C -1,5 C 0,0 km/h (0 Bft)
_ Min-Zeit 20:35 14:40 20:35 - 23:55 - - 20:35 22:00 23:55
Minimum _ -1,0 C 61 % 1019,7 hPa - 0,0 km/h (0 Bft) - - -2,1 C -1,8 C 0,0 km/h (0 Bft)
_ Max-Zeit 14:35 05:10 00:55 23:55 07:50 - - 14:25 14:40 07:45
Maximum _ 9,9 C 95 % 1023,8 hPa 0,0 l/m 5,6 km/h
W-SW (1 Bft)
- - 4,3 C 12,9 C 9,8 km/h
S (2 Bft)
Durchschnitt _ 3,4 C 88 % 1021,9 hPa #0,0 l/m 1,3 km/h (1 Bft) S - 1,6 C 3,1 C 1,7 km/h (1 Bft)